Location: Kuffner-Sternwarte
(48.2130°N, 16.2960°E)
Time: 06:52:01
(UTC+02:00)

COROT - Pass Details

Date: 19 May 2018
Orbit: 599 x 890 km, 90.0° (Epoch: 20 May)

Event Time Altitude Azimuth Distance (km) Brightness Sun altitude
Rises 21:31:14 0° 7° (N) 2,989 9.6 -8.6°
Reaches altitude 10° 21:33:29 10° 14° (NNE) 2,110 8.7 -8.8°
Maximum altitude 21:37:57 45° 87° (E) 971 6.3 -9.4°
Enters shadow 21:42:45 10° 160° (SSE) 2,265 7.9 -9.9°
